Cloud_Cover
99 98 75 65 59 54 56 62 55 17 5 11 16 12 8 3 5 5 0 0 0 0 0 0 0 0 0 0 4 5 5 5 4 5 4 1 5 78 100 100 65 54 62
9 40 31 39 35 5 5 7 46 21 5 5 5 5 4 0 0 0 0 0 0 0 0 0 0 0 0 5 5 5 5 5 5 12 71 90 69 8 6 17 5 5 17
5 18 30 15 26 76 67 60 5 5 6 73 0 0 0 0 0 2 2 0 0 0 0 0 0 0 5 5 0 3 5 5 5 34 5 2 0 0 0 2 3 5 4
5 51 50 36 22 5 5 5 45 17 6 0 0 0 5 3 5 5 5 5 4 0 0 0 0 0 0 0 1 5 5 2 0 2 4 5 4 5 5 5 75 5 2
5 5 6 100 5 5 7 77 56 10 0 5 5 5 5 5 5 5 5 5 5 5 0 0 0 0 0 1 0 0 2 5 5 5 4 5 5 6 62 32 90 90 43
0 5 5 20 90 5 5 7 0 0 5 5 5 5 5 5 22 5 5 5 5 1 0 0 0 0 0 1 16 5 18 20 100 75 5 24 84 97 100 94 46 5 1
5 5 40 53 5 5 5 1 5 5 5 5 12 43 6 22 8 5 5 2 0 0 0 0 3 13 38 69 58 75 45 61 86 92 79 95 100 100 100 100 41 5 2
5 3 5 5 5 5 7 4 5 5 5 5 15 100 39 5 8 58 40 0 5 5 5 42 48 8 84 76 87 100 99 97 94 79 97 100 100 100 100 100 100 44 5
4 3 5 5 5 3 4 4 5 9 33 44 93 100 10 7 76 7 5 5 9 27 8 10 28 100 100 94 100 89 97 98 41 100 100 100 100 100 90 100 100 100 30
5 5 5 5 2 5 5 7 70 100 100 100 78 5 7 76 5 8 42 23 30 5 12 34 74 48 66 99 98 98 100 92 98 100 100 96 17 69 100 100 100 100 100
5 5 3 4 5 5 63 100 100 100 82 79 87 41 18 38 10 5 5 5 5 5 5 5 5 41 93 100 60 96 100 100 100 100 100 100 100 100 100 100 100 100 100
5 5 5 27 96 99 100 100 100 86 86 100 74 30 16 5 5 5 5 5 23 32 5 5 5 83 94 85 53 100 100 100 100 100 100 100 92 100 100 100 100 100 100
5 5 58 100 100 100 100 100 87 99 100 5 17 23 5 5 5 5 13 53 65 46 5 5 45 23 91 44 99 100 66 99 60 35 79 75 62 64 80 99 100 100 100
12 92 100 86 100 99 84 83 79 99 8 5 9 62 57 19 5 24 33 76 85 16 12 85 76 40 5 15 88 69 79 38 62 65 44 16 31 49 54 45 99 100 100
100 100 50 5 24 99 98 81 100 32 29 20 97 82 36 24 93 94 99 100 32 5 89 24 5 8 24 95 100 100 99 97 37 5 4 2 4 2 46 46 100 100 100
99 76 100 96 11 93 100 100 91 82 99 74 100 93 42 93 78 100 100 71 7 13 92 96 52 94 53 8 6 74 90 42 5 0 0 0 5 42 6 82 89 43 100
46 86 100 49 68 100 100 100 79 76 81 100 100 46 76 99 100 100 71 19 50 27 87 95 64 52 69 5 5 1 0 4 0 0 0 5 11 94 100 100 99 100 100
96 100 100 100 100 100 100 100 100 100 100 100 98 89 100 100 100 98 22 17 5 16 78 98 28 20 5 4 3 5 5 0 0 1 5 5 64 100 75 100 100 100 100
100 100 100 99 43 90 82 100 100 100 100 100 100 100 100 100 99 51 55 5 61 40 100 27 5 5 5 5 5 5 5 5 5 5 5 5 25 50 59 100 100 100 100
100 100 92 35 84 95 100 100 100 100 100 100 100 100 100 99 70 42 7 5 59 29 3 0 4 5 5 5 5 5 5 21 5 5 2 3 17 45 84 95 100 100 100
97 41 42 87 98 100 100 100 100 100 100 100 100 86 94 82 66 14 20 5 76 78 5 5 5 5 4 5 5 5 4 5 5 5 5 5 9 18 19 16 94 80 92
11 20 74 95 100 100 100 100 100 100 100 94 97 100 87 65 60 96 7 49 48 95 57 55 5 5 16 5 5 0 4 4 18 33 44 22 5 5 5 5 10 70 62
79 82 84 99 100 100 100 100 100 100 100 100 100 100 100 100 99 72 26 94 87 27 5 5 80 96 100 99 15 0 1 5 5 51 10 5 5 5 2 2 5 17 81
66 100 96 100 100 100 100 100 100 100 100 100 100 100 100 100 96 51 81 94 93 90 10 83 98 96 100 100 100 98 100 98 92 97 37 9 5 9 18 45 44 72 34
65 94 100 100 99 100 100 100 100 100 100 100 100 100 100 54 94 80 84 92 96 81 99 99 96 48 80 100 62 40 73 86 78 5 98 100 100 98 99 93 79 67 10
100 100 100 100 100 100 100 100 100 100 100 100 100 100 100 100 100 100 100 92 38 12 5 5 5 5 5 5 5 5 5 5 5 80 100 100 100 100 100 100 100 100 35